Weather History for Kushiro Airport, Japan

Change the Weather History Date:

Friday, August 16, 2013

  Actual Average Record
Temperature  
Mean Temperature 70 °F -  
Max Temperature 73 °F 65 °F 77 °F (1999)
Min Temperature 66 °F 57 °F 50 °F (1997)
Cooling Degree Days 4    
Growing Degree Days 20 (Base 50)    
Moisture  
Dew Point 68 °F    
Average Humidity 94    
Maximum Humidity 100    
Minimum Humidity 83    
Precipitation  
Precipitation 0.00 in - - ()
Sea Level Pressure  
Sea Level Pressure 29.71 in    
Wind  
Wind Speed 5 mph ()    
Max Wind Speed 10 mph    
Max Gust Speed -    
Visibility 0.6 miles    
Events Fog , Rain    
Averages and records for this station are not official NWS values.
T = Trace of Precipitation, MM = Missing Value Source: Averaged Metar Reports

Daily Weather History Graph

Daily Weather History Graph

Search for Another Location

Airport:

Trip Planner

Search our weather history database for the weather conditions in past years. The results will help you decide how hot, cold, wet, or windy it might be!

Date:

Astronomy

Aug. 16, 2013 Rise Set
Actual Time 4:29 AM JST 6:24 PM JST
Civil Twilight 3:59 AM JST 6:55 PM JST
Nautical Twilight 3:21 AM JST 7:32 PM JST
Astronomical Twilight 2:40 AM JST 8:12 PM JST
Moon 2:06 PM JST (8/16) 11:50 PM JST (8/16)
Length of Visible Light 14h 56m
Length of Day
13h 54m
Waxing Gibbous, 69% of the Moon is Illuminated
Aug 16
Waxing Gibbous
Aug 21
Full
Aug 28
Last Quarter
Sep 5
New
Sep 13
First Quarter

Hourly Weather History & Observations

Time (JST) Temp. Dew Point Humidity Pressure Visibility Wind Dir Wind Speed Gust Speed Precip Events Conditions
7:00 AM 68.0 °F 68.0 °F 100% 29.74 in 0.1 mi SSW 5.8 mph - N/A   Heavy Drizzle
8:00 AM 69.8 °F 69.8 °F 100% 29.71 in 0.2 mi SSE 4.6 mph - N/A Fog Fog
8:02 AM 69.8 °F 69.8 °F 100% 29.71 in 0.2 mi SSE 4.6 mph - N/A Fog Fog
8:09 AM 69.8 °F 69.8 °F 100% 29.71 in 0.2 mi SSE 3.5 mph - N/A Fog Fog
8:10 AM 69.8 °F 69.8 °F 100% 29.71 in 0.2 mi SSE 3.5 mph - N/A Fog Fog
8:19 AM 69.8 °F 69.8 °F 100% 29.71 in 0.3 mi SE 3.5 mph - N/A Fog Fog
8:22 AM 69.8 °F 68.0 °F 94% 29.71 in 0.4 mi SE 3.5 mph - N/A Fog Fog
8:24 AM 69.8 °F 68.0 °F 94% 29.74 in 0.4 mi SE 3.5 mph - N/A Fog Fog
8:28 AM 69.8 °F 69.8 °F 100% 29.74 in 0.4 mi Variable 2.3 mph - N/A Fog Fog
8:34 AM 69.8 °F 69.8 °F 100% 29.74 in 0.4 mi Variable 1.2 mph - N/A Fog Fog
8:45 AM 69.8 °F 69.8 °F 100% 29.74 in 0.9 mi Variable 2.3 mph - N/A Fog Patches of Fog
8:48 AM 69.8 °F 69.8 °F 100% 29.74 in 0.9 mi ENE 3.5 mph - N/A Fog Patches of Fog
9:00 AM 69.8 °F 69.8 °F 100% 29.74 in 0.7 mi East 3.5 mph - N/A Fog Patches of Fog
9:02 AM 69.8 °F 69.8 °F 100% 29.74 in 0.7 mi East 3.5 mph - N/A Fog Patches of Fog
9:06 AM 69.8 °F 69.8 °F 100% 29.74 in 0.6 mi East 3.5 mph - N/A Fog Fog
9:09 AM 69.8 °F 69.8 °F 100% 29.74 in 0.6 mi ESE 3.5 mph - N/A Fog Fog
10:00 AM 71.6 °F 69.8 °F 94% 29.71 in 1.5 mi East 5.8 mph - N/A Fog Patches of Fog
10:22 AM 71.6 °F 69.8 °F 94% 29.71 in 1.9 mi East 5.8 mph - N/A Fog Patches of Fog
10:37 AM 71.6 °F 69.8 °F 94% 29.71 in 1.6 mi SSE 4.6 mph - N/A Fog Patches of Fog
11:00 AM 69.8 °F 68.0 °F 94% 29.71 in 1.4 mi South 6.9 mph - N/A Fog Patches of Fog
11:15 AM 69.8 °F 68.0 °F 94% 29.71 in 0.5 mi South 8.1 mph - N/A Fog Fog
11:21 AM 69.8 °F 68.0 °F 94% 29.71 in 0.9 mi South 6.9 mph - N/A Fog Patches of Fog
11:32 AM 71.6 °F 68.0 °F 88% 29.71 in 1.5 mi SSE 4.6 mph - N/A Fog Patches of Fog
11:39 AM 71.6 °F 69.8 °F 94% 29.71 in - SE 4.6 mph - N/A Fog Patches of Fog
12:00 PM 71.6 °F 69.8 °F 94% 29.68 in 3.1 mi ESE 5.8 mph - N/A Fog Patches of Fog
12:04 PM 73.4 °F 69.8 °F 88% 29.68 in 3.1 mi ESE 5.8 mph - N/A Fog Patches of Fog
12:30 PM 71.6 °F 66.2 °F 83% 29.71 in - South 9.2 mph - N/A Fog Fog
1:00 PM 71.6 °F 68.0 °F 88% 29.71 in 2.8 mi SSW 8.1 mph - N/A Fog , Rain Light Fog
1:27 PM 71.6 °F 68.0 °F 88% 29.68 in 2.8 mi South 8.1 mph - N/A Fog Fog
1:36 PM 71.6 °F 68.0 °F 88% 29.68 in - South 10.4 mph - N/A   Mostly Cloudy
1:41 PM 71.6 °F 68.0 °F 88% 29.68 in 0.9 mi South 10.4 mph - N/A Fog Patches of Fog
1:48 PM 71.6 °F 68.0 °F 88% 29.68 in 1.5 mi South 10.4 mph - N/A Fog Patches of Fog
2:00 PM 71.6 °F 68.0 °F 88% 29.68 in 1.4 mi South 10.4 mph - N/A Fog Patches of Fog
2:10 PM 71.6 °F 68.0 °F 88% 29.68 in 0.9 mi SSW 10.4 mph - N/A Fog Patches of Fog
2:14 PM 71.6 °F 68.0 °F 88% 29.68 in 0.9 mi SSW 10.4 mph - N/A Fog Patches of Fog
2:22 PM 71.6 °F 68.0 °F 88% 29.68 in 1.2 mi South 8.1 mph - N/A Fog Patches of Fog
2:30 PM 69.8 °F 68.0 °F 94% 29.68 in 0.9 mi South 6.9 mph - N/A Fog Patches of Fog
2:40 PM 69.8 °F 68.0 °F 94% 29.68 in 0.9 mi South 6.9 mph - N/A Fog Patches of Fog
2:46 PM 69.8 °F 68.0 °F 94% 29.68 in 0.6 mi South 8.1 mph - N/A Fog Fog
3:00 PM 69.8 °F 66.2 °F 88% 29.68 in 0.3 mi South 8.1 mph - N/A Fog Fog
3:07 PM 69.8 °F 68.0 °F 94% 29.68 in 0.2 mi SSE 9.2 mph - N/A Fog Fog
3:12 PM 69.8 °F 66.2 °F 88% 29.68 in 0.2 mi SSE 10.4 mph - N/A Fog Fog
3:20 PM 68.0 °F 66.2 °F 94% 29.68 in 0.2 mi South 10.4 mph - N/A Fog Fog
3:40 PM 68.0 °F 66.2 °F 94% 29.68 in 0.2 mi South 8.1 mph - N/A Fog Fog
3:46 PM 68.0 °F 66.2 °F 94% 29.68 in 0.2 mi South 8.1 mph - N/A Fog Fog
4:00 PM 68.0 °F 66.2 °F 94% 29.68 in 0.1 mi South 6.9 mph - N/A Fog Fog
4:18 PM 68.0 °F 66.2 °F 94% 29.71 in 0.1 mi SSE 8.1 mph - N/A Fog Fog
4:28 PM 68.0 °F 66.2 °F 94% 29.71 in 0.1 mi South 9.2 mph - N/A Fog Fog
4:47 PM 68.0 °F 66.2 °F 94% 29.71 in 0.1 mi SSE 5.8 mph - N/A Fog Fog
4:50 PM 68.0 °F 66.2 °F 94% 29.71 in 0.1 mi SSE 4.6 mph - N/A Fog Fog
5:00 PM 68.0 °F 66.2 °F 94% 29.71 in 0.2 mi East 3.5 mph - N/A Fog Fog
5:07 PM 68.0 °F 66.2 °F 94% 29.71 in 0.2 mi Variable 2.3 mph - N/A Fog Fog
5:23 PM 68.0 °F 66.2 °F 94% 29.71 in 0.2 mi Variable 2.3 mph - N/A Fog Fog
5:37 PM 68.0 °F 66.2 °F 94% 29.71 in 0.4 mi Variable 1.2 mph - N/A Fog Fog
5:47 PM 68.0 °F 66.2 °F 94% 29.71 in 0.4 mi Variable 2.3 mph - N/A Fog Fog
6:00 PM 68.0 °F 66.2 °F 94% 29.71 in 0.4 mi SSE 4.6 mph - N/A Fog Fog
6:40 PM 68.0 °F 66.2 °F 94% 29.71 in 0.2 mi SSE 4.6 mph - N/A Fog Fog
6:45 PM 68.0 °F 66.2 °F 94% 29.71 in 0.2 mi South 4.6 mph - N/A Fog Fog
7:00 PM 68.0 °F 66.2 °F 94% 29.74 in 0.2 mi Variable 2.3 mph - N/A Fog Fog
7:05 PM 68.0 °F 66.2 °F 94% 29.74 in 0.1 mi Variable 2.3 mph - N/A Fog Fog
7:27 PM 68.0 °F 66.2 °F 94% 29.74 in 0.1 mi SSW 3.5 mph - N/A Fog Fog
7:34 PM 68.0 °F 66.2 °F 94% 29.74 in 0.1 mi SSW 4.6 mph - N/A Fog Fog
7:50 PM 68.0 °F 66.2 °F 94% 29.74 in 0.1 mi Variable 2.3 mph - N/A Fog Fog
8:00 PM 68.0 °F 66.2 °F 94% 29.74 in 0.1 mi SW 3.5 mph - N/A Fog Fog
8:09 PM 68.0 °F 66.2 °F 94% 29.74 in 0.1 mi SSW 4.6 mph - N/A Fog Fog
8:22 PM 68.0 °F 66.2 °F 94% 29.74 in 0.1 mi South 3.5 mph - N/A Fog Fog
8:25 PM 68.0 °F 66.2 °F 94% 29.74 in 0.1 mi South 3.5 mph - N/A Fog Fog
8:29 PM 66.2 °F 66.2 °F 100% 29.74 in 0.1 mi SSW 3.5 mph - N/A Fog Fog
8:40 PM 66.2 °F 66.2 °F 100% 29.74 in 0.1 mi SW 4.6 mph - N/A Fog Fog
8:43 PM 66.2 °F 66.2 °F 100% 29.74 in 0.1 mi SW 4.6 mph - N/A Fog Fog